Flag for Russia Weather past 2 weeks in Kaliningrad, Russia

34 °F


Feels Like: 26 °F
Forecast: 36 / 42 °F
Wind: 10 mph from South

Location: Kaliningrad/Khrabrovo Airport

Current Time: Nov 28, 2015 at 5:12:36 PM

Latest Report: Nov 28, 2015 at 4:00 PM

Visibility: 5 mi

Pressure: 29.71 "Hg

Humidity: 81%

Dew point: 28 °F

Location of KaliningradLocation

Historic Weather in Kaliningrad — Graph


Kaliningrad temperature yesterday

Maximum temperature yesterday: 43 °F (at 12:30 PM)
Minimum temperature yesterday: 32 °F (at 7:00 PM)
Average temperature yesterday: 37 °F

Past Weeks' High & Low Weather Summary

High55 °F (Nov 18, 11:30 AM)100% (Nov 17, 2:00 AM)30.15 "Hg (Nov 17, 2:00 AM)
Low27 °F (Nov 25, 8:00 AM)66% (Nov 21, 2:30 PM)29.27 "Hg (Nov 18, 8:00 AM)
Average40 °F88%29.72 "Hg
* Reported Nov 13 4:00 PM — Nov 28 4:00 PM, Kaliningrad, Weather by CustomWeather, © 2015

Note: Actual official high and low records may vary slightly from our data, if they occured in-between our weather recording intervals... More about our weather records


Kaliningrad weather history for previous 24 hours

Time TempWeatherWind HumidityBarometerVisibility
4:00 PM
Sat, Nov 28
34 °FOvercast.10 mph81%29.71 "Hg5 mi
3:30 PM34 °FOvercast.10 mph87%29.71 "Hg4 mi
3:00 PM34 °FOvercast.10 mph87%29.71 "Hg4 mi
2:30 PM34 °FOvercast.13 mph87%29.71 "Hg4 mi
2:00 PM34 °FPartly sunny.8 mph87%29.71 "Hg4 mi
1:30 PM34 °FPartly sunny.13 mph87%29.71 "Hg4 mi
1:00 PM34 °FOvercast.10 mph87%29.74 "Hg4 mi
12:30 PM34 °FPartly sunny.10 mph87%29.74 "Hg4 mi
12:00 PM32 °FPartly sunny.13 mph87%29.77 "Hg4 mi
11:30 AM30 °FClear.10 mph86%29.77 "Hg4 mi
11:00 AM30 °FClear.13 mph86%29.80 "Hg4 mi
10:30 AM30 °FClear.10 mph86%29.80 "Hg5 mi
10:00 AM28 °FPassing clouds.10 mph93%29.83 "Hg5 mi
9:30 AM28 °FPassing clouds.8 mph86%29.83 "Hg4 mi
8:00 AM28 °FPassing clouds.10 mph93%29.86 "Hg4 mi
7:30 AM28 °FPassing clouds.10 mph93%29.86 "Hg4 mi
6:30 AM28 °FIce fog.10 mph93%29.86 "Hg3 mi
6:00 AM28 °FIce fog.10 mph93%29.89 "Hg3 mi
5:30 AM28 °FIce fog.10 mph93%29.89 "Hg3 mi
5:00 AM28 °FIce fog.10 mph93%29.89 "Hg3 mi
4:30 AM30 °FPassing clouds.13 mph93%29.92 "Hg4 mi
4:00 AM34 °FFog.8 mph87%29.92 "Hg3 mi
3:00 AM32 °FPassing clouds.6 mph87%29.92 "Hg4 mi
1:00 AM30 °FClear.6 mph93%29.98 "Hg4 mi
12:00 AM28 °FIce fog.3 mph93%29.98 "Hg3 mi
11:00 PM
Fri, Nov 27
32 °FClear.8 mph87%30.01 "Hg4 mi
10:30 PM32 °FClear.8 mph87%30.01 "Hg4 mi
10:00 PM32 °FClear.8 mph87%30.01 "Hg4 mi
9:30 PM32 °FClear.10 mph87%30.01 "Hg4 mi
9:00 PM32 °FClear.10 mph87%30.01 "Hg4 mi
8:30 PM32 °FClear.8 mph87%30.01 "Hg4 mi
8:00 PM32 °FClear.8 mph87%30.01 "Hg4 mi
7:00 PM32 °FClear.6 mph93%30.04 "Hg4 mi
6:30 PM34 °FClear.6 mph87%30.04 "Hg4 mi
6:00 PM34 °FClear.6 mph81%30.04 "Hg6 mi
5:30 PM36 °FClear.8 mph81%30.04 "Hg6 mi
5:00 PM36 °FClear.8 mph81%30.04 "Hg6 mi
Weather by CustomWeather, © 2015

See weather overviewHow to use our weather pages